Weather History for Buffalo, SD

Change the Weather History Date:

Sunday, October 21, 2012

  Actual Average Record
Temperature  
Mean Temperature 45 °F 44 °F  
Max Temperature 51 °F 55 °F 82 °F (2000)
Min Temperature 38 °F 32 °F 19 °F (1997)
Degree Days  
Heating Degree Days 20 21  
Month to date heating degree days 385 375  
Since 1 July heating degree days 544 666  
Cooling Degree Days 0 0  
Month to date cooling degree days 0 0  
Year to date cooling degree days 853 512  
Moisture  
Dew Point 33 °F    
Average Humidity 65    
Maximum Humidity 89    
Minimum Humidity 41    
Precipitation  
Precipitation 0.08 in 0.03 in 0.16 in (2008)
Month to date precipitation 0.19 0.34  
Year to date precipitation 7.78 13.56  
Sea Level Pressure  
Sea Level Pressure 29.86 in    
Wind  
Wind Speed 13 mph (NNE)    
Max Wind Speed 24 mph    
Max Gust Speed 29 mph    
T = Trace of Precipitation, MM = Missing Value Source: NWS Daily Summary

Daily Weather History Graph

Daily Weather History Graph

Search for Another Location

Airport:

Trip Planner

Search our weather history database for the weather conditions in past years. The results will help you decide how hot, cold, wet, or windy it might be!

Date:

Astronomy

Oct. 21, 2012 Rise Set
Actual Time 7:19 AM MDT 5:57 PM MDT
Civil Twilight 6:49 AM MDT 6:27 PM MDT
Nautical Twilight 6:14 AM MDT 7:02 PM MDT
Astronomical Twilight 5:40 AM MDT 7:36 PM MDT
Moon 1:47 PM MDT (10/21) 11:49 PM MDT (10/21)
Length of Visible Light 11h 38m
Length of Day
10h 37m
Waxing Crescent, 46% of the Moon is Illuminated
Oct 21
Waxing Crescent
Oct 21
First Quarter
Oct 29
Full
Nov 6
Last Quarter
Nov 13
New

Hourly Weather History & Observations

Time (MDT) Temp. Windchill Dew Point Humidity Pressure Visibility Wind Dir Wind Speed Gust Speed Precip Events Conditions
12:56 AM 46.0 °F 39.0 °F 42.1 °F 86% 29.63 in - NNW 17.3 mph - N/A   Unknown
1:56 AM 44.1 °F 36.2 °F 39.9 °F 85% 29.67 in - NNW 18.4 mph 28.8 mph N/A   Unknown
2:56 AM 43.0 °F 34.8 °F 39.9 °F 89% 29.70 in - NNW 18.4 mph - N/A   Unknown
3:56 AM 43.0 °F 35.4 °F 37.9 °F 82% 29.72 in - NNW 16.1 mph - N/A   Unknown
4:56 AM 44.1 °F 37.7 °F 37.9 °F 79% 29.76 in - North 12.7 mph - N/A   Unknown
5:56 AM 44.1 °F 36.8 °F 36.0 °F 73% 29.79 in - NNW 16.1 mph - N/A   Unknown
6:56 AM 43.0 °F 38.2 °F 35.1 °F 74% 29.83 in - WNW 8.1 mph - N/A   Unknown
7:56 AM 42.1 °F 38.4 °F 34.0 °F 73% 29.85 in - NW 5.8 mph - N/A   Unknown
8:56 AM 44.1 °F 38.1 °F 34.0 °F 68% 29.86 in - North 11.5 mph - N/A   Unknown
9:56 AM 46.9 °F - 32.0 °F 56% 29.86 in - North 8.1 mph - N/A   Unknown
10:56 AM 46.9 °F - 30.0 °F 52% 29.88 in - NNE 12.7 mph - N/A   Unknown
11:56 AM 48.9 °F - 28.9 °F 46% 29.89 in - NE 11.5 mph - N/A   Unknown
12:56 PM 50.0 °F - 28.0 °F 43% 29.88 in - NNE 11.5 mph - N/A   Unknown
1:56 PM 50.0 °F - 28.9 °F 44% 29.88 in - NE 11.5 mph - N/A   Unknown
2:56 PM 51.1 °F - 28.0 °F 41% 29.91 in - NNE 8.1 mph - N/A   Unknown
3:56 PM 50.0 °F - 28.9 °F 44% 29.92 in - NE 12.7 mph - N/A   Unknown
4:56 PM 46.9 °F - 32.0 °F 56% 29.93 in - East 12.7 mph - N/A   Unknown
5:56 PM 46.0 °F 39.9 °F 30.0 °F 54% 29.93 in - East 13.8 mph - N/A   Unknown
6:56 PM 45.0 °F 38.5 °F 30.0 °F 56% 29.94 in - East 13.8 mph - N/A   Unknown
7:56 PM 45.0 °F 37.6 °F 28.9 °F 53% 29.95 in - East 17.3 mph - N/A   Unknown
8:56 PM 43.0 °F 35.7 °F 30.9 °F 62% 29.97 in - ENE 15.0 mph - N/A   Unknown
9:56 PM 42.1 °F 36.1 °F 33.1 °F 70% 29.97 in - East 10.4 mph - N/A   Unknown
10:56 PM 39.9 °F 32.5 °F 35.1 °F 83% 29.97 in - ESE 12.7 mph - 0.01 in   Unknown
11:56 PM 39.0 °F 31.0 °F 36.0 °F 89% 29.96 in - East 13.8 mph - 0.03 in   Unknown